#timestamp,LO_Frequency,Hit 
1498514415.5,286047061.5,N
1498514435.3,286047059.7,N
1498514455.1,286047059.6,N
1498514475.9,286047059.6,N
1498514495.7,286047057.3,N
1498514515.5,286047059.1,N
1498514535.4,286047059.6,N
1498514555.2,286047059.0,N
1498514575.0,286047060.1,N
1498514575.9,286047060.1,N
1498514595.8,286047061.3,N
1498514615.6,286047063.6,N
1498514635.4,286047058.9,N
1498514655.3,286047059.4,N
1498514675.1,286047059.8,N
1498514676.0,286047059.8,N
1498514695.8,286047059.9,N
1498514715.7,286047059.8,N
1498514735.5,286047059.5,N
1498514755.3,286047060.6,N
1498514775.1,286047063.0,N
1498514795.9,286047063.4,N
1498514815.7,286047066.0,N
1498514835.5,286047066.2,N
1498514855.4,286047064.3,N
1498514875.2,286047062.2,N
1498514895.0,286047062.5,N
1498514895.9,286047062.5,N
1498514915.8,286047062.6,N
1498514935.6,286047062.5,N
1498514955.4,286047064.5,N
1498514975.3,286047063.8,N
1498514995.1,286047066.7,N
1498514996.0,286047066.7,N
1498515015.8,286047066.0,N
1498515035.7,286047066.7,N
1498515055.5,286047064.2,N
1498515075.3,286047066.8,N
1498515095.1,286047062.2,N
1498515115.9,286047062.4,N
1498515135.7,286047063.3,N
1498515155.5,286047061.0,N
1498515175.4,286047063.1,N
1498515195.2,286047062.2,N
1498515215.0,286047064.7,N
1498515215.9,286047064.7,N
1498515235.8,286047064.8,N
1498515255.6,286047064.6,N
1498515275.4,286047064.2,N
1498515295.3,286047062.6,N
1498515315.1,286047062.1,N
1498515316.0,286047062.1,N
1498515335.8,286047063.0,N
1498515355.7,286047062.8,N
1498515375.5,286047063.3,N
1498515395.3,286047064.4,N
1498515415.1,286047066.8,N
1498515435.9,286047064.8,N
1498515455.7,286047066.5,N
1498515475.5,286047066.0,N
1498515495.4,286047066.3,N
1498515515.2,286047063.7,N
1498515535.0,286047063.7,N
1498515535.9,286047063.7,N
1498515555.8,286047066.1,N
1498515575.6,286047067.7,N
1498515595.4,286047070.2,N
1498515615.3,286047069.2,N
1498515635.1,286047068.1,N
1498515636.0,286047068.1,N
1498515655.8,286047068.1,N
1498515675.7,286047063.8,N
1498515695.5,286047065.8,N
1498515715.3,286047068.1,N
1498515735.2,286047067.6,N
1498515755.9,286047069.7,N
1498515775.7,286047073.1,N
1498515795.5,286047072.8,N
1498515815.4,286047070.9,N
1498515835.2,286047067.7,N
1498515855.0,286047066.5,N
1498515855.9,286047066.5,N
1498515875.8,286047067.8,N
1498515895.6,286047070.8,N
1498515915.4,286047071.5,N
1498515935.3,286047069.0,N
1498515955.1,286047069.8,N
1498515956.0,286047069.8,N
1498515975.8,286047070.3,N
1498515995.7,286047072.9,N
1498516015.5,286047073.0,N
1498516035.3,286047071.1,N
1498516055.2,286047069.5,N
1498516075.9,286047068.3,N
1498516095.7,286047068.1,N
1498516115.5,286047065.7,N
1498516135.4,286047067.3,N
1498516155.2,286047069.5,N
1498516175.0,286047071.6,N
1498516175.9,286047071.6,N
1498516195.8,286047071.9,N
1498516215.6,286047068.9,N
1498516235.4,286047068.9,N
1498516255.3,286047068.9,N
1498516275.1,286047068.7,N
1498516295.8,286047070.8,N
1498516315.7,286047068.8,N
1498516335.5,286047071.5,N
1498516355.3,286047070.3,N
1498516375.2,286047071.7,N
1498516395.9,286047074.2,N
1498516415.7,286047074.0,N
1498516435.5,286047075.7,N
1498516455.4,286047077.3,N
1498516475.2,286047076.9,N
1498516495.0,286047076.5,N
1498516495.9,286047076.5,N
1498516515.8,286047077.5,N
1498516535.6,286047077.5,N
1498516555.4,286047077.9,N
1498516575.3,286047077.2,N
1498516595.1,286047078.5,N
1498516596.0,286047078.5,N
1498516615.8,286047078.2,N
1498516635.7,286047078.3,N
1498516655.5,286047077.4,N
1498516675.3,286047077.4,N
1498516695.2,286047079.3,N
1498516715.9,286047078.4,N
1498516735.7,286047078.2,N
1498516755.6,286047078.9,N
1498516775.4,286047080.9,N
1498516795.2,286047078.7,N
1498516815.0,286047079.3,N
1498516815.9,286047079.3,N
1498516835.8,286047078.2,N
1498516855.6,286047080.9,N
1498516875.4,286047080.6,N
1498516895.3,286047080.5,N
1498516915.1,286047080.3,N
1498516935.8,286047076.5,N
1498516955.7,286047075.3,N
1498516975.5,286047076.4,N
1498516995.3,286047074.0,N
1498517015.2,286047076.4,N
1498517035.9,286047073.8,N
1498517055.7,286047074.0,N
1498517075.6,286047072.1,N
1498517095.4,286047072.8,N
1498517115.2,286047073.4,N
1498517135.0,286047077.4,N
1498517135.9,286047077.4,N
1498517155.8,286047077.9,N
1498517175.6,286047077.8,N
1498517195.4,286047078.8,N
1498517215.3,286047078.3,N
1498517235.1,286047079.8,N
1498517255.8,286047079.7,N
1498517275.7,286047079.9,N
1498517295.5,286047080.5,N
1498517315.3,286047082.3,N
1498517335.2,286047080.2,N
1498517355.9,286047080.9,N
1498517375.7,286047078.1,N
1498517395.6,286047078.9,N
1498517415.4,286047080.5,N
1498517435.2,286047080.4,N
1498517455.0,286047080.5,N
1498517455.9,286047080.5,N
1498517475.8,286047081.2,N
1498517495.6,286047078.2,N
1498517515.4,286047080.9,N
1498517535.3,286047081.1,N
1498517555.1,286047078.9,N
1498517575.8,286047080.4,N
1498517595.7,286047082.8,N
1498517615.5,286047080.0,N
1498517635.3,286047082.6,N
1498517655.2,286047082.6,N
1498517675.9,286047081.9,N
1498517695.7,286047081.6,N
1498517715.6,286047083.9,N
1498517735.4,286047082.8,N
1498517755.2,286047081.7,N
1498517775.0,286047082.7,N
1498517776.0,286047082.7,N
1498517795.8,286047081.6,N
1498517815.6,286047081.4,N
1498517835.4,286047081.9,N
1498517855.3,286047082.5,N
1498517875.1,286047081.6,N
1498517895.8,286047084.1,N
1498517915.7,286047085.4,N
1498517935.5,286047085.5,N
1498517955.3,286047081.9,N
1498517975.2,286047083.7,N
1498517995.9,286047085.3,N
